Location: Ar Ranvel
(48.3000°N, 4.8833°W)
Time: 19:58:06
(UTC+00:00)

ISS - Pass Details

Date: 05 October 2021
Orbit: 417 x 423 km, 51.6° (Epoch: 20 October)

Event Time Altitude Azimuth Distance (km) Brightness Sun altitude
Rises 18:19:34 0° 291° (WNW) 2,366 1.6 -5.7°
Reaches altitude 10° 18:21:43 10° 285° (WNW) 1,500 0.6 -6.1°
Maximum altitude 18:24:57 44° 212° (SSW) 585 -2.7 -6.6°
Drops below altitude 10° 18:28:10 10° 138° (SE) 1,494 -1.3 -7.1°
Enters shadow 18:29:37 - 134° (SE) 2,073 -0.7 -7.4°
